This demonstration page uses our WeatherBlox Daily Observations layout. Learn more.

Left ArrowRight Arrow

39.08367, -84.50855

Hourly Observations for September 4, 2015

Temp ( °F °C ) Dew Point ( °F °C ) Humidity (%) Winds ( mph kmh ) Pressure ( in mb ) Visibility ( mi km ) Precip ( " mm )
12:53 am 00:53 Clear with Mist and Fog 68 20 68 20 100 100 Calm 29.96 1015 4 6 0.00 0.00
1:53 am 01:53 Clear with Mist and Fog 68 20 68 20 100 100 Calm 29.96 1015 4 6 0.00 0.00
2:09 am 02:09 Clear with Mist and Fog 68 20 68 20 100 100 Calm 29.94 1014 2 2 0.00 0.00
2:22 am 02:22 Clear with Mist and Fog 67 19.4 67 19.4 100 100 Calm 29.94 1014 1 1 0.00 0.00
2:39 am 02:39 Clear with Mist and Fog 68 20 68 20 100 100 Calm 29.94 1014 3 4 0.00 0.00
2:53 am 02:53 Clear with Mist and Fog 66 18.9 66 18.9 100 100 Calm 29.96 1015 2 3 0.00 0.00
3:21 am 03:21 Clear with Mist and Fog 67 19.4 67 19.4 100 100 Calm 29.94 1014 3 5 0.00 0.00
3:37 am 03:37 Clear with Mist and Fog 68 20 68 20 100 100 Calm 29.94 1014 3 4 0.00 0.00
3:53 am 03:53 Clear with Mist and Fog 67 19.4 67 19.4 100 100 Calm 29.97 1015 3 4 0.00 0.00
3:57 am 03:57 Mostly Cloudy with Mist and Fog 67 19.4 67 19.4 100 100 Calm 29.97 1015 1 2 0.00 0.00
4:08 am 04:08 Mostly Clear with Mist and Fog 66 19 66 19 100 100 Calm 29.97 1015 2 3 0.00 0.00
4:28 am 04:28 Clear with Mist and Fog 66 19 66 19 100 100 Calm 29.97 1015 4 6 0.00 0.00
4:53 am 04:53 Clear with Mist and Fog 66 18.9 66 18.9 100 100 Calm 29.99 1016 2 3 0.00 0.00
5:00 am 05:00 Clear with Mist and Fog 66 19 66 19 100 100 Calm 29.97 1015 1 2 0.00 0.00
5:10 am 05:10 Clear with Fog 67 19.4 67 19.4 100 100 Calm 29.97 1015 1 1 0.00 0.00
5:23 am 05:23 Clear with Mist and Fog 66 18.9 66 18.9 100 100 Calm 29.97 1015 1 2 0.00 0.00
5:45 am 05:45 Mostly Cloudy with Fog 66 18.9 66 18.9 100 100 Calm 29.97 1015 1 1 0.00 0.00
5:53 am 05:53 Mostly Cloudy with Fog 66 18.9 66 18.9 100 100 Calm 30.00 1016 1 1 0.00 0.00
6:01 am 06:01 Mostly Clear with Mist and Fog 67 19.4 67 19.4 100 100 Calm 29.97 1015 1 2 0.00 0.00
6:07 am 06:07 Mostly Clear with Mist and Fog 67 19.4 67 19.4 100 100 Calm 29.97 1015 3 5 0.00 0.00
6:15 am 06:15 Clear with Mist and Fog 66 18.9 66 18.9 100 100 Calm 29.97 1015 2 3 0.00 0.00
6:25 am 06:25 Clear with Mist and Fog 66 18.9 66 18.9 100 100 Calm 30.00 1016 3 5 0.00 0.00
6:34 am 06:34 Clear with Mist and Fog 66 19 66 19 100 100 Calm 30.00 1016 1 2 0.00 0.00
6:39 am 06:39 Clear with Fog 66 18.9 66 18.9 100 100 Calm 30.00 1016 0 0 0.00 0.00
6:49 am 06:49 Clear with Mist and Fog 66 19 66 19 100 100 Calm 30.00 1016 1 2 0.00 0.00
6:53 am 06:53 Clear with Patchy Fog 66 18.9 66 18.9 100 100 Calm 30.01 1016 3 5 0.00 0.00
7:53 am 07:53 Sunny with Patchy Fog 67 19.4 67 19.4 100 100 Calm 30.03 1017 3 5 0.00 0.00
8:53 am 08:53 Sunny with Mist and Fog 71 21.7 70 21.1 96 96 Calm 30.04 1017 3 5 0.00 0.00
9:53 am 09:53 Hazy 77 25 72 22.2 85 85 Calm 30.04 1017 5 8 0.00 0.00
10:53 am 10:53 Sunny 83 28.3 71 21.7 67 67 WSW 3 6 30.04 1017 7 11 0.00 0.00
11:53 am 11:53 Sunny 87 30.6 69 20.6 55 55 S 3 6 30.04 1017 10 16 0.00 0.00
12:53 pm 12:53 Partly Cloudy 88 31.1 68 20 52 52 S 7 11 30.04 1017 10 16 0.00 0.00
1:53 pm 13:53 Partly Cloudy 90 32.2 68 20 48 48 SSW 7 11 30.02 1017 10 16 0.00 0.00
2:53 pm 14:53 Sunny 90 32.2 67 19.4 47 47 Calm 30.01 1016 10 16 0.00 0.00
3:53 pm 15:53 Sunny 90 32.2 67 19.4 47 47 SSW 8 13 29.98 1015 10 16 0.00 0.00
4:53 pm 16:53 Partly Cloudy with Nearby Thunderstorms 91 32.8 67 19.4 45 45 SW 7 11 29.97 1015 10 16 0.00 0.00
5:45 pm 17:45 Partly Cloudy with Thunderstorms 89 31.7 69 20.6 52 52 S 7 11 29.94 1014 10 16 0.00 0.00
5:53 pm 17:53 Partly Cloudy with Thunderstorms 89 31.7 70 21.1 53 53 SE 6 9 29.98 1015 10 16 0.00 0.00
6:39 pm 18:39 Cloudy with Strong Thunderstorms 70 21.1 66 18.9 87 87 NE 38 61 30.00 1016 2 2 0.11 2.79
6:53 pm 18:53 Cloudy with Strong Thunderstorms 68 20 67 19.4 96 96 N 49 80 30.06 1018 2 2 0.62 15.75
7:00 pm 19:00 Cloudy with Strong Thunderstorms 66 19 N/A N/A NNW 26 43 30.09 1019 1 1 0.34 8.64
7:13 pm 19:13 Cloudy with Strong Thunderstorms 70 21 N/A N/A WSW 15 24 30.06 1018 1 2 0.93 23.62
7:19 pm 19:19 Cloudy with Strong Thunderstorms 70 21 N/A N/A SSW 17 28 30.03 1017 2 3 1.04 26.42
7:35 pm 19:35 Cloudy with Thunderstorms 70 21 N/A N/A SSE 13 20 30.03 1017 6 10 1.23 31.24
7:53 pm 19:53 Cloudy with Rain 70 21 N/A N/A W 16 26 30.06 1018 6 10 1.25 31.75
8:53 pm 20:53 Partly Cloudy with Thunderstorms 70 21 N/A N/A NE 6 9 30.12 1020 10 16 0.03 0.76
9:06 pm 21:06 Mostly Clear with Nearby Thunderstorms 70 21 N/A N/A Calm 30.09 1019 10 16 0.00 0.00
9:14 pm 21:14 Partly Cloudy with Light Rain 70 21 N/A N/A E 3 6 30.09 1019 9 14 0.00 0.00
9:22 pm 21:22 Partly Cloudy with Nearby Thunderstorms 70 21 N/A N/A ENE 5 7 30.09 1019 7 11 0.00 0.00
9:53 pm 21:53 Clear with Light Rain 70 21 N/A N/A ENE 8 13 30.11 1020 10 16 0.01 0.25
10:53 pm 22:53 Clear 70 21 N/A N/A S 6 9 30.08 1019 10 16 0.04 1.02
11:53 pm 23:53 Clear 70 21 N/A N/A Calm 30.08 1019 10 16 0.00 0.00

Powered by AerisWeather